Date String (YYYY-MM-DD hh:mm:ss) UTC,Instrument flags,absolute air pressure of the measurement (hPa),sample flow rate (lpm),inlet stack bypass flow (lpm),air temperature of the measurement (°C),ambient temperature measured by the external sensor (°C),aerosol sample conditioner tube jacket temperature (°C),OPC LED temperature (°C),internal box temperature (°C),relative humidity of the measurement (%),span deviation,mass concentration of particles derived from Lorenz-Mie calculation of OPC scattering (μg/m³),mass concentration of particles derived from Lorenz-Mie calculation of OPC scattering (μg/m³),mass concentration of particles derived from Lorenz-Mie calculation of OPC scattering (μg/m³)
DateTimeUTC,F1_M11,P_M11,Q1_M11,Q2_M11,T1_M11,T2_M11,T3_M11,T4_M11,T5_M11,U1_M11,ZSPAN_M11,X0_M11,X2_M11,X1_M11
2023-09-24 21:00:00,SystemResetWarning,0832.3,5.00,000.00,028.0,026.1,000.0,036.3,029.6,12.8,0000.0,0008.36,0003.63,0003.10
2023-09-24 21:01:00,SystemResetWarning,0832.3,5.00,000.00,028.0,026.5,000.0,036.3,029.7,13.0,0000.0,0008.76,0003.59,0003.09
2023-09-24 21:02:00,SystemResetWarning,0832.4,5.01,000.00,028.1,026.7,000.0,036.4,029.8,12.6,0000.0,0008.95,0003.56,0003.09
2023-09-24 21:03:00,SystemResetWarning,0832.4,5.01,000.00,028.1,026.9,000.0,036.4,029.9,12.5,0000.0,0008.86,0003.56,0003.09
2023-09-24 21:04:00,SystemResetWarning,0832.4,5.00,000.00,028.2,027.1,000.0,036.4,029.9,12.3,0000.0,0009.03,0003.60,0003.09
2023-09-24 21:05:00,SystemResetWarning,0832.4,4.99,000.00,028.2,027.3,000.0,036.4,030.0,12.4,0000.0,0008.88,0003.58,0003.09
2023-09-24 21:06:00,SystemResetWarning,0832.4,4.99,000.00,028.3,026.9,000.0,036.4,029.9,12.5,0000.0,0008.85,0003.57,0003.09
2023-09-24 21:07:00,SystemResetWarning,0832.3,5.00,000.00,028.2,025.1,000.0,036.4,029.6,12.6,0000.0,0009.00,0003.58,0003.09
2023-09-24 21:08:00,SystemResetWarning,0832.3,5.00,000.00,028.1,024.1,000.0,036.3,029.4,12.7,0000.0,0009.13,0003.58,0003.08
2023-09-24 21:09:00,SystemResetWarning,0832.3,5.01,000.00,028.0,024.3,000.0,036.3,029.3,13.0,0000.0,0008.64,0003.57,0003.09
2023-09-24 21:10:00,SystemResetWarning,0832.3,5.01,000.00,027.9,024.7,000.0,036.3,029.3,13.1,0000.0,0008.66,0003.62,0003.10
2023-09-24 21:11:00,SystemResetWarning,0832.3,4.99,000.00,027.9,025.1,000.0,036.3,029.3,12.7,0000.0,0008.28,0003.62,0003.10
2023-09-24 21:12:00,SystemResetWarning,0832.4,5.00,000.00,027.9,025.5,000.0,036.3,029.4,12.5,0000.0,0008.04,0003.60,0003.10
2023-09-24 21:13:00,SystemResetWarning,0832.3,5.00,000.00,027.9,025.8,000.0,036.3,029.5,12.7,0000.0,0007.63,0003.61,0003.09
2023-09-24 21:14:00,SystemResetWarning,0832.3,4.99,000.00,027.9,026.2,000.0,036.3,029.6,12.9,0000.0,0007.70,0003.60,0003.08
2023-09-24 21:15:00,SystemResetWarning,0832.4,4.99,000.00,028.0,026.4,000.0,036.3,029.7,12.9,0000.0,0007.62,0003.54,0003.06
2023-09-24 21:16:00,SystemResetWarning,0832.4,5.00,000.00,028.0,026.7,000.0,036.3,029.8,12.9,0000.0,0007.56,0003.52,0003.05
2023-09-24 21:17:00,SystemResetWarning,0832.4,5.00,000.00,028.1,026.9,000.0,036.3,029.8,12.8,0000.0,0008.05,0003.52,0003.05
2023-09-24 21:18:00,SystemResetWarning,0832.4,5.01,000.00,028.1,027.1,000.0,036.4,029.9,12.6,0000.0,0008.39,0003.53,0003.04
2023-09-24 21:19:00,SystemResetWarning,0832.5,4.99,000.00,028.2,027.2,000.0,036.4,030.0,12.8,0000.0,0009.02,0003.51,0003.02
2023-09-24 21:20:00,SystemResetWarning,0832.5,4.99,000.00,028.3,027.3,000.0,036.4,030.0,12.5,0000.0,0008.88,0003.49,0003.01
2023-09-24 21:21:00,SystemResetWarning,0832.5,4.99,000.00,028.2,025.9,000.0,036.4,029.7,12.4,0000.0,0008.64,0003.45,0003.00
2023-09-24 21:22:00,SystemResetWarning,0832.4,5.00,000.00,028.1,024.3,000.0,036.3,029.3,12.5,0000.0,0008.71,0003.43,0002.99
2023-09-24 21:23:00,SystemResetWarning,0832.4,5.02,000.00,028.0,024.2,000.0,036.3,029.3,12.6,0000.0,0009.22,0003.43,0002.98
2023-09-24 21:24:00,SystemResetWarning,0832.4,5.00,000.00,027.9,024.5,000.0,036.3,029.2,12.7,0000.0,0009.86,0003.44,0002.99
2023-09-24 21:25:00,SystemResetWarning,0832.4,4.99,000.00,027.9,024.9,000.0,036.3,029.3,12.9,0000.0,0010.45,0003.47,0002.99
2023-09-24 21:26:00,SystemResetWarning,0832.4,5.00,000.00,027.9,025.3,000.0,036.3,029.4,12.8,0000.0,0010.60,0003.48,0002.99
2023-09-24 21:27:00,SystemResetWarning,0832.5,5.01,000.00,027.9,025.7,000.0,036.3,029.5,12.8,0000.0,0011.32,0003.48,0002.99
2023-09-24 21:28:00,SystemResetWarning,0832.4,5.00,000.00,027.9,026.1,000.0,036.3,029.5,12.6,0000.0,0010.75,0003.47,0002.98
2023-09-24 21:29:00,SystemResetWarning,0832.5,5.00,000.00,028.0,026.4,000.0,036.3,029.6,12.7,0000.0,0010.38,0003.46,0002.98
2023-09-24 21:30:00,SystemResetWarning,0832.5,5.00,000.00,028.0,026.6,000.0,036.3,029.7,12.4,0000.0,0009.47,0003.46,0003.00
2023-09-24 21:31:00,SystemResetWarning,0832.5,5.01,000.00,028.1,026.9,000.0,036.3,029.8,12.3,0000.0,0009.70,0003.49,0003.00
2023-09-24 21:32:00,SystemResetWarning,0832.5,5.00,000.00,028.1,027.1,000.0,036.3,029.9,12.6,0000.0,0009.88,0003.51,0003.01
2023-09-24 21:33:00,SystemResetWarning,0832.6,5.00,000.00,028.2,027.2,000.0,036.4,029.9,12.2,0000.0,0009.80,0003.51,0003.01
2023-09-24 21:34:00,SystemResetWarning,0832.5,4.99,000.00,028.2,027.2,000.0,036.4,030.0,12.3,0000.0,0009.18,0003.50,0003.03
2023-09-24 21:35:00,SystemResetWarning,0832.5,4.98,000.00,028.2,025.7,000.0,036.4,029.7,12.2,0000.0,0008.35,0003.49,0003.04
2023-09-24 21:36:00,SystemResetWarning,0832.5,5.00,000.00,028.1,024.3,000.0,036.3,029.3,12.1,0000.0,0007.83,0003.48,0003.04
2023-09-24 21:37:00,SystemResetWarning,0832.4,5.01,000.00,028.0,024.3,000.0,036.2,029.3,12.6,0000.0,0008.09,0003.47,0003.04
2023-09-24 21:38:00,SystemResetWarning,0832.5,5.01,000.00,027.9,024.6,000.0,036.2,029.2,12.7,0000.0,0007.42,0003.48,0003.05
2023-09-24 21:39:00,SystemResetWarning,0832.5,4.99,000.00,027.8,025.0,000.0,036.3,029.3,13.0,0000.0,0007.45,0003.51,0003.07
2023-09-24 21:40:00,SystemResetWarning,0832.5,5.00,000.00,027.9,025.4,000.0,036.3,029.4,12.7,0000.0,0008.02,0003.53,0003.07
2023-09-24 21:41:00,SystemResetWarning,0832.5,5.00,000.00,027.9,025.8,000.0,036.3,029.5,12.7,0000.0,0008.03,0003.52,0003.06
2023-09-24 21:42:00,SystemResetWarning,0832.5,5.00,000.00,027.9,026.1,000.0,036.3,029.6,12.1,0000.0,0008.17,0003.54,0003.07
2023-09-24 21:43:00,SystemResetWarning,0832.5,5.01,000.00,028.0,026.4,000.0,036.3,029.6,12.4,0000.0,0008.01,0003.53,0003.07
2023-09-24 21:44:00,SystemResetWarning,0832.6,5.00,000.00,028.0,026.7,000.0,036.3,029.7,12.2,0000.0,0008.08,0003.57,0003.08
2023-09-24 21:45:00,SystemResetWarning,0832.5,4.99,000.00,028.1,026.9,000.0,036.3,029.8,12.2,0000.0,0008.19,0003.61,0003.09
2023-09-24 21:46:00,SystemResetWarning,0832.5,4.99,000.00,028.1,027.1,000.0,036.3,029.9,12.2,0000.0,0008.31,0003.63,0003.10
2023-09-24 21:47:00,SystemResetWarning,0832.5,5.00,000.00,028.2,027.3,000.0,036.4,030.0,12.1,0000.0,0008.35,0003.66,0003.10
2023-09-24 21:48:00,SystemResetWarning,0832.5,5.00,000.00,028.2,027.4,000.0,036.4,030.0,11.9,0000.0,0008.34,0003.66,0003.10
2023-09-24 21:49:00,SystemResetWarning,0832.5,5.00,000.00,028.3,026.5,000.0,036.4,029.8,12.1,0000.0,0008.29,0003.71,0003.11
2023-09-24 21:50:00,SystemResetWarning,0832.5,5.00,000.00,028.1,024.7,000.0,036.3,029.4,12.2,0000.0,0008.26,0003.72,0003.12
2023-09-24 21:51:00,SystemResetWarning,0832.6,5.01,000.00,028.0,024.2,000.0,036.3,029.3,12.0,0000.0,0008.16,0003.70,0003.12
2023-09-24 21:52:00,SystemResetWarning,0832.6,5.01,000.00,027.9,024.5,000.0,036.2,029.3,11.8,0000.0,0008.21,0003.69,0003.12
2023-09-24 21:53:00,SystemResetWarning,0832.5,4.99,000.00,027.9,024.9,000.0,036.3,029.3,11.8,0000.0,0008.50,0003.66,0003.12
2023-09-24 21:54:00,SystemResetWarning,0832.5,5.00,000.00,027.9,025.3,000.0,036.3,029.4,11.6,0000.0,0008.50,0003.64,0003.12
2023-09-24 21:55:00,SystemResetWarning,0832.5,5.00,000.00,027.9,025.7,000.0,036.3,029.5,11.7,0000.0,0008.76,0003.64,0003.13
2023-09-24 21:56:00,SystemResetWarning,0832.5,5.01,000.00,027.9,026.0,000.0,036.3,029.6,11.8,0000.0,0008.84,0003.66,0003.13
2023-09-24 21:57:00,SystemResetWarning,0832.5,4.99,000.00,028.0,026.4,000.0,036.3,029.7,11.8,0000.0,0008.89,0003.66,0003.13
2023-09-24 21:58:00,SystemResetWarning,0832.6,5.00,000.00,028.0,026.6,000.0,036.3,029.7,12.0,0000.0,0008.93,0003.63,0003.13
2023-09-24 21:59:00,SystemResetWarning,0832.6,5.00,000.00,028.1,026.9,000.0,036.3,029.8,11.9,0000.0,0009.89,0003.63,0003.13
